Weather History for KBPC - October, 2012

Change the Weather History Date:

Tuesday, October 23, 2012

  Actual Average Record
Temperature  
Mean Temperature 75 °F -  
Max Temperature 93 °F - - ()
Min Temperature 57 °F - - ()
Cooling Degree Days 10    
Growing Degree Days 25 (Base 50)    
Moisture  
Dew Point 38 °F    
Average Humidity 32    
Maximum Humidity 64    
Minimum Humidity 11    
Precipitation  
Precipitation 0.00 in - - ()
Sea Level Pressure  
Sea Level Pressure 29.79 in    
Wind  
Wind Speed 17 mph (SW)    
Max Wind Speed 23 mph    
Max Gust Speed 34 mph    
Visibility 10 miles    
Events      
Averages and records for this station are not official NWS values.
T = Trace of Precipitation, MM = Missing Value Source: NWS Daily Summary

Daily Weather History Graph

Daily Weather History Graph

Search for Another Location

Airport or City:

Trip Planner

Search our weather history database for the weather conditions in past years. The results will help you decide how hot, cold, wet, or windy it might be!

Date:

Astronomy

Oct. 23, 2012 Rise Set
Actual Time 7:58 AM CDT 6:57 PM CDT
Civil Twilight 7:32 AM CDT 7:23 PM CDT
Nautical Twilight 7:02 AM CDT 7:53 PM CDT
Astronomical Twilight 6:32 AM CDT 8:23 PM CDT
Moon 3:32 PM CDT (10/23) 2:03 AM CDT (10/23)
Length of Visible Light 11h 51m
Length of Day
10h 59m
Waxing Gibbous, 67% of the Moon is Illuminated
Oct 23
Waxing Gibbous
Oct 29
Full
Nov 6
Last Quarter
Nov 13
New
Nov 20
First Quarter

Hourly Weather History & Observations

Time (CDT) Temp. Dew Point Humidity Pressure Visibility Wind Dir Wind Speed Gust Speed Precip Events Conditions
12:15 AM 69.8 °F 53.6 °F 56% 29.80 in 10.0 mi South 23.0 mph 34.5 mph N/A   Clear
12:35 AM 69.8 °F 53.6 °F 56% 29.81 in 10.0 mi SSW 21.9 mph 31.1 mph N/A   Clear
12:55 AM 68.0 °F 53.6 °F 60% 29.81 in 10.0 mi SW 15.0 mph 24.2 mph N/A   Clear
1:15 AM 66.2 °F 53.6 °F 64% 29.81 in 10.0 mi SW 10.4 mph - N/A   Clear
1:35 AM 68.0 °F 53.6 °F 60% 29.80 in 10.0 mi SW 16.1 mph - N/A   Clear
2:15 AM 64.4 °F 50.0 °F 59% 29.79 in 10.0 mi SW 12.7 mph - N/A   Clear
2:35 AM 64.4 °F 50.0 °F 59% 29.79 in 10.0 mi SW 13.8 mph - N/A   Clear
2:55 AM 64.4 °F 50.0 °F 59% 29.78 in 10.0 mi SSW 18.4 mph 23.0 mph N/A   Clear
3:15 AM 64.4 °F 50.0 °F 59% 29.78 in 10.0 mi SSW 17.3 mph - N/A   Clear
3:35 AM 64.4 °F 46.4 °F 52% 29.77 in 10.0 mi SSW 17.3 mph 21.9 mph N/A   Clear
4:15 AM 62.6 °F 44.6 °F 52% 29.77 in 10.0 mi SSW 15.0 mph - N/A   Clear
4:35 AM 60.8 °F 44.6 °F 55% 29.77 in 10.0 mi SW 8.1 mph - N/A   Clear
4:55 AM 60.8 °F 42.8 °F 52% 29.77 in 10.0 mi SW 6.9 mph - N/A   Clear
5:15 AM 59.0 °F 41.0 °F 51% 29.76 in 10.0 mi SSW 9.2 mph - N/A   Clear
6:15 AM 59.0 °F 39.2 °F 48% 29.78 in 10.0 mi South 10.4 mph - N/A   Clear
6:35 AM 57.2 °F 39.2 °F 51% 29.79 in 10.0 mi SSW 11.5 mph - N/A   Clear
6:55 AM 59.0 °F 37.4 °F 45% 29.79 in 10.0 mi SSW 10.4 mph - N/A   Clear
7:15 AM 59.0 °F 37.4 °F 45% 29.79 in 10.0 mi SSW 15.0 mph - N/A   Clear
7:35 AM 59.0 °F 37.4 °F 45% 29.80 in 10.0 mi SSW 13.8 mph - N/A   Clear
8:15 AM 57.2 °F 37.4 °F 48% 29.80 in 10.0 mi SSW 15.0 mph - N/A   Clear
8:35 AM 59.0 °F 37.4 °F 45% 29.80 in 10.0 mi SSW 13.8 mph - N/A   Clear
8:55 AM 60.8 °F 35.6 °F 39% 29.81 in 10.0 mi SSW 12.7 mph - N/A   Clear
9:15 AM 62.6 °F 35.6 °F 37% 29.81 in 10.0 mi SW 16.1 mph - N/A   Clear
9:35 AM 66.2 °F 35.6 °F 32% 29.82 in 10.0 mi SW 15.0 mph 19.6 mph N/A   Clear
9:55 AM 68.0 °F 35.6 °F 30% 29.82 in 10.0 mi WSW 15.0 mph 20.7 mph N/A   Clear
10:15 AM 69.8 °F 35.6 °F 28% 29.82 in 10.0 mi WSW 16.1 mph - N/A   Clear
10:35 AM 71.6 °F 35.6 °F 27% 29.84 in 10.0 mi WSW 17.3 mph - N/A   Clear
10:55 AM 75.2 °F 35.6 °F 24% 29.83 in 10.0 mi WSW 18.4 mph - N/A   Clear
11:35 AM 80.6 °F 33.8 °F 18% 29.84 in 10.0 mi West 18.4 mph - N/A   Clear
11:55 AM 82.4 °F 32.0 °F 16% 29.83 in 10.0 mi WSW 19.6 mph 24.2 mph N/A   Clear
12:15 PM 82.4 °F 32.0 °F 16% 29.84 in 10.0 mi West 17.3 mph 24.2 mph N/A   Clear
12:35 PM 82.4 °F 32.0 °F 16% 29.84 in 10.0 mi West 15.0 mph 21.9 mph N/A   Clear
12:55 PM 84.2 °F 32.0 °F 15% 29.83 in 10.0 mi WSW 20.7 mph - N/A   Clear
1:15 PM 86.0 °F 32.0 °F 14% 29.82 in 10.0 mi WSW 15.0 mph 23.0 mph N/A   Clear
1:35 PM 86.0 °F 32.0 °F 14% 29.82 in 10.0 mi WSW 12.7 mph 20.7 mph N/A   Clear
1:55 PM 86.0 °F 30.2 °F 13% 29.81 in 10.0 mi WSW 17.3 mph 20.7 mph N/A   Clear
2:15 PM 86.0 °F 30.2 °F 13% 29.80 in 10.0 mi WSW 17.3 mph - N/A   Clear
2:35 PM 87.8 °F 32.0 °F 14% 29.79 in 10.0 mi West 15.0 mph 20.7 mph N/A   Clear
2:55 PM 89.6 °F 32.0 °F 13% 29.78 in 10.0 mi WSW 16.1 mph 20.7 mph N/A   Clear
3:15 PM 91.4 °F 32.0 °F 12% 29.77 in 10.0 mi SW 10.4 mph 20.7 mph N/A   Clear
3:35 PM 93.2 °F 32.0 °F 11% 29.75 in 10.0 mi SW 17.3 mph 25.3 mph N/A   Clear
3:55 PM 93.2 °F 30.2 °F 11% 29.75 in 10.0 mi WSW 19.6 mph 28.8 mph N/A   Clear
4:15 PM 93.2 °F 30.2 °F 11% 29.75 in 10.0 mi SW 21.9 mph 27.6 mph N/A   Clear
4:35 PM 93.2 °F 30.2 °F 11% 29.75 in 10.0 mi WSW 23.0 mph 32.2 mph N/A   Clear
4:55 PM 91.4 °F 30.2 °F 11% 29.74 in 10.0 mi SW 21.9 mph 29.9 mph N/A   Clear
5:15 PM 91.4 °F 30.2 °F 11% 29.75 in 10.0 mi SW 20.7 mph 29.9 mph N/A   Clear
5:35 PM 91.4 °F 30.2 °F 11% 29.75 in 10.0 mi SW 20.7 mph 26.5 mph N/A   Clear
5:55 PM 89.6 °F 30.2 °F 12% 29.75 in 10.0 mi SW 17.3 mph 25.3 mph N/A   Clear
6:15 PM 89.6 °F 32.0 °F 13% 29.75 in 10.0 mi SSW 17.3 mph 24.2 mph N/A   Clear
7:15 PM 82.4 °F 30.2 °F 15% 29.76 in 10.0 mi SSW 13.8 mph - N/A   Clear
7:35 PM 78.8 °F 32.0 °F 18% 29.77 in 10.0 mi SSW 13.8 mph - N/A   Clear
7:55 PM 78.8 °F 35.6 °F 21% 29.77 in 10.0 mi South 18.4 mph - N/A   Clear
8:15 PM 78.8 °F 35.6 °F 21% 29.78 in 10.0 mi South 17.3 mph - N/A   Clear
8:35 PM 78.8 °F 37.4 °F 23% 29.78 in 10.0 mi South 19.6 mph 24.2 mph N/A   Clear
8:55 PM 77.0 °F 37.4 °F 24% 29.79 in 10.0 mi South 18.4 mph 24.2 mph N/A   Clear
9:15 PM 77.0 °F 37.4 °F 24% 29.79 in 10.0 mi South 19.6 mph - N/A   Clear
9:35 PM 77.0 °F 39.2 °F 26% 29.79 in 10.0 mi South 18.4 mph 24.2 mph N/A   Clear
10:15 PM 75.2 °F 41.0 °F 29% 29.80 in 10.0 mi South 17.3 mph 21.9 mph N/A   Clear
10:35 PM 73.4 °F 41.0 °F 31% 29.80 in 10.0 mi South 19.6 mph 24.2 mph N/A   Clear
10:55 PM 73.4 °F 42.8 °F 33% 29.80 in 10.0 mi South 20.7 mph - N/A   Clear
11:15 PM 73.4 °F 44.6 °F 36% 29.80 in 10.0 mi South 18.4 mph 23.0 mph N/A   Clear
11:55 PM 71.6 °F 44.6 °F 38% 29.81 in 10.0 mi South 16.1 mph 24.2 mph N/A   Clear